Location: Unspecified
(0.0000°N, 0.0000°E)
Time: 07:39:48
(UTC+00:00)

Vanguard 2 Rocket - Pass Details

Date: 23 January 2020
Orbit: 554 x 3326 km, 32.9° (Epoch: 21 September)

Event Time Altitude Azimuth Distance (km) Brightness Sun altitude
Rises 09:21:33 0° 338° (NNW) 4,415 10.1 44.0°
Reaches altitude 10° 09:25:57 10° 360° (N) 3,944 10.0 45.0°
Maximum altitude 09:32:07 16° 34° (NE) 4,109 10.5 46.3°
Drops below altitude 10° 09:40:03 10° 67° (ENE) 5,314 11.3 48.0°
Sets 09:47:50 0° 85° (E) 6,858 11.8 49.7°
